Weather History for Pardubice, Czech Republic

Change the Weather History Date:

Friday, January 18, 2013

  Actual Average Record
Temperature  
Mean Temperature 22 °F -  
Max Temperature 24 °F - - ()
Min Temperature 21 °F - - ()
Degree Days  
Heating Degree Days 42    
Moisture  
Dew Point 18 °F    
Average Humidity 82    
Maximum Humidity 86    
Minimum Humidity 74    
Precipitation  
Precipitation 0.00 in - - ()
Sea Level Pressure  
Sea Level Pressure 29.80 in    
Wind  
Wind Speed 5 mph ()    
Max Wind Speed 8 mph    
Max Gust Speed -    
Visibility 5.0 miles    
Events Snow    
T = Trace of Precipitation, MM = Missing Value Source: Averaged Metar Reports

Daily Weather History Graph

Daily Weather History Graph

Search for Another Location

Airport:

Trip Planner

Search our weather history database for the weather conditions in past years. The results will help you decide how hot, cold, wet, or windy it might be!

Date:

Astronomy

Jan. 18, 2013 Rise Set
Actual Time 7:47 AM CET 4:28 PM CET
Civil Twilight 7:10 AM CET 5:04 PM CET
Nautical Twilight 6:30 AM CET 5:45 PM CET
Astronomical Twilight 5:51 AM CET 6:23 PM CET
Moon 10:28 AM CET (1/18) No Moon Set
Length of Visible Light 9h 54m
Length of Day
8h 41m
Waxing Crescent, 45% of the Moon is Illuminated
Jan 18
Waxing Crescent
Jan 19
First Quarter
Jan 27
Full
Feb 3
Last Quarter
Feb 10
New

Hourly Weather History & Observations

Time (CET) Temp. Windchill Dew Point Humidity Pressure Visibility Wind Dir Wind Speed Gust Speed Precip Events Conditions
12:00 AM 24.8 °F 19.1 °F 19.4 °F 80% 29.86 in 5.0 mi North 4.6 mph - N/A Snow Light Snow
1:00 AM 24.8 °F 17.9 °F 19.4 °F 80% 29.86 in 5.0 mi NNE 5.8 mph - N/A Snow Light Snow
2:00 AM 23.0 °F 14.7 °F 17.6 °F 80% 29.86 in 6.2 mi NE 6.9 mph - N/A Snow Light Snow
4:00 AM 23.0 °F 15.8 °F 17.6 °F 80% 29.86 in 6.2 mi NNE 5.8 mph - N/A   Overcast
5:00 AM 21.2 °F 14.9 °F 17.6 °F 86% 29.86 in 6.2 mi North 4.6 mph - N/A   Overcast
6:00 AM 21.2 °F 13.6 °F 17.6 °F 86% 29.86 in 6.2 mi NNE 5.8 mph - N/A   Overcast
6:50 AM 21.2 °F 13.6 °F 17.6 °F 86% 29.83 in 6.2 mi NNE 5.8 mph - N/A Snow Light Snow
7:00 AM 21.2 °F 14.9 °F 17.6 °F 86% 29.83 in 5.0 mi NNE 4.6 mph - N/A Snow Light Snow
8:00 AM 21.2 °F 11.7 °F 17.6 °F 86% 29.83 in 3.7 mi NNE 8.1 mph - N/A Snow Light Snow
9:00 AM 21.2 °F 16.4 °F 15.8 °F 80% 29.86 in 3.7 mi NNE 3.5 mph - N/A Snow Light Snow
10:00 AM 21.2 °F 14.9 °F 17.6 °F 86% 29.83 in 3.1 mi NNE 4.6 mph - N/A Snow Light Snow
11:00 AM 23.0 °F 14.7 °F 17.6 °F 80% 29.83 in 3.7 mi NNE 6.9 mph - N/A Snow Light Snow
12:00 PM 23.0 °F - 17.6 °F 80% 29.80 in 5.0 mi Variable 2.3 mph - N/A   Overcast
1:00 PM 24.8 °F 19.1 °F 17.6 °F 74% 29.80 in 5.0 mi North 4.6 mph - N/A   Overcast
2:00 PM 24.8 °F 20.5 °F 19.4 °F 80% 29.77 in 5.0 mi North 3.5 mph - N/A   Overcast
3:00 PM 24.8 °F 20.5 °F 19.4 °F 80% 29.77 in 5.0 mi North 3.5 mph - N/A   Overcast
4:00 PM 23.0 °F 15.8 °F 17.6 °F 80% 29.77 in 5.0 mi NNE 5.8 mph - N/A   Overcast
5:00 PM 23.0 °F 14.7 °F 17.6 °F 80% 29.74 in 5.0 mi NNE 6.9 mph - N/A   Overcast
6:00 PM 23.0 °F 14.7 °F 17.6 °F 80% 29.74 in 5.0 mi NNE 6.9 mph - N/A   Overcast
7:00 PM 23.0 °F 15.8 °F 19.4 °F 86% 29.74 in 5.0 mi NNE 5.8 mph - N/A   Overcast
8:00 PM 23.0 °F 15.8 °F 17.6 °F 80% 29.74 in 5.0 mi NNE 5.8 mph - N/A   Overcast
9:00 PM 21.2 °F 14.9 °F 17.6 °F 86% 29.74 in 5.0 mi NNE 4.6 mph - N/A   Overcast
10:00 PM 23.0 °F 15.8 °F 17.6 °F 80% 29.71 in 5.0 mi NNE 5.8 mph - N/A   Overcast
11:00 PM 21.2 °F 13.6 °F 17.6 °F 86% 29.68 in 3.7 mi NE 5.8 mph - N/A Snow Light Snow